Location: Camp de Sidi Ali
(33.2896°N, 8.3271°W)
Time: 14:00:47
(UTC+00:00)

Daily predictions for brighter satellites

Satellite Brightness Start Highest point End
(mag) Time Altitude Azimuth Time Altitude Azimuth Time Altitude Azimuth
Cosmos 2221 Rocket 4.0 19:59:21 10° SSE 20:03:37 44° E 20:07:57 10° NNE
NOSS 2-2 (D) 3.2 20:02:54 10° SSW 20:06:27 50° ESE 20:09:56 10° NE
Aureole 2 Rocket 2.5 20:04:15 10° S 20:07:13 40° ESE 20:10:04 10° NNE
STARLINK-1094 4.4 20:03:29 10° NNW 20:07:25 41° NE 20:11:20 10° ESE
ARGOS 3.2 20:03:24 10° SSE 20:08:44 69° ENE 20:14:06 10° N
Cosmos 1356 4.0 20:05:47 10° NNW 20:09:10 61° W 20:12:33 10° S
MOS 1 Rocket 3.2 20:05:59 10° NNE 20:10:11 54° E 20:14:23 10° S
STARLINK-1117 4.2 20:08:26 10° NNW 20:12:25 46° NE 20:16:24 10° ESE
STARLINK-52 3.7 20:10:57 10° SSW 20:13:48 29° SE 20:16:38 10° ENE
CZ-2C R/B 3.0 20:08:25 10° NNE 20:13:50 48° E 20:19:10 10° S
SL-4 R/B 2.2 20:11:21 10° SW 20:15:50 77° SE 20:20:36 10° NE
Cosmos 1943 Rocket 3.2 20:11:51 10° SSE 20:16:06 23° E 20:20:23 10° NE
STARLINK-1078 4.1 20:13:22 10° NW 20:17:25 51° NE 20:21:21 10° ESE
BREEZE M DEB (TANK) 3.4 20:15:01 10° WNW 20:17:30 27° SW 20:19:28 10° SSE
ASTEX 1 3.4 20:13:58 10° S 20:18:51 88° E 20:23:48 10° N
SPOT 3 Rocket 4.3 20:14:39 10° SE 20:19:17 35° ENE 20:23:56 10° N
GPS 2-04 Rocket1 2.4 20:16:12 10° WNW 20:19:35 73° N 20:23:04 10° E
Cosmos 676 Rocket 4.1 20:14:51 10° NNW 20:20:09 88° WSW 20:25:27 10° SSE
Okean 2 Rocket 3.6 20:18:02 10° N 20:22:10 39° E 20:26:16 10° SSE
STARLINK-1108 3.9 20:18:19 10° NW 20:22:24 57° NE 20:26:08 12° ESE
NOSS 2-2 (E) 3.4 20:19:12 10° SW 20:22:46 70° WNW 20:26:25 10° NNE
Cosmos 304 Rocket 3.8 20:18:35 10° S 20:23:17 62° ESE 20:28:00 10° NNE
Sich 1 Rocket 3.6 20:18:49 10° N 20:23:24 74° E 20:27:55 10° S
H-2A R/B 2.6 20:21:01 10° S 20:26:00 61° W 20:31:10 10° NNW
FALCON 9 DEB 4.2 20:23:22 10° S 20:26:10 24° SE 20:28:58 10° ENE
STARLINK-1071 3.8 20:23:17 10° NW 20:27:23 64° NE 20:30:56 14° SE
Resurs 01 Rocket 3.0 20:24:28 11° ESE 20:27:46 24° ENE 20:31:19 10° NNE
Cosmos 1437 Rocket 3.0 20:25:19 10° SSE 20:28:55 45° E 20:32:35 10° NNE
SWIFT 4.3 20:28:18 10° SSW 20:30:40 14° S 20:32:35 11° SSE
STARLINK-1110 3.7 20:26:46 10° NW 20:30:53 69° NE 20:34:17 15° SE
Cosmos 1833 Rocket 2.8 20:26:37 10° NNW 20:32:15 79° WSW 20:37:50 10° SSE
Cosmos 1300 Rocket 3.9 20:29:01 10° N 20:33:18 46° E 20:37:12 12° SSE
ASTRO E2 2.8 20:32:41 10° W 20:36:35 60° S 20:39:37 16° ESE
Okean 3 4.0 20:32:22 10° SSW 20:36:38 64° W 20:40:55 10° N
STARLINK-1124 3.6 20:33:12 10° NW 20:37:21 80° NE 20:40:29 17° SE
Cosmos 2151 Rocket 4.1 20:33:39 10° N 20:37:57 41° E 20:41:23 15° SSE
Cosmos 2279 Rocket 4.2 20:32:02 10° N 20:38:04 51° E 20:43:46 11° SSE
Cosmos 2297 3.8 20:33:32 10° SSW 20:39:12 84° WNW 20:44:57 10° NNE
Meteor 1-12 Rocket 4.3 20:35:36 10° N 20:41:16 67° E 20:46:59 10° SSE
Meteor 2-4 Rocket 4.3 20:36:26 10° SSW 20:41:40 56° W 20:46:56 10° N
Resurs 1-3 3.8 20:38:14 13° SSE 20:41:57 52° ENE 20:46:13 10° N
STARLINK-1122 3.6 20:38:10 10° NW 20:42:19 89° NNE 20:45:16 19° SE
USA 267 3.9 20:36:34 10° SSE 20:42:50 49° SW 20:49:09 10° NW
Sakura Rocket 4.2 20:40:24 10° W 20:45:42 54° S 20:51:35 16° ESE
STARLINK-1126 3.6 20:42:50 10° NW 20:46:59 82° SW 20:49:45 20° SE
Cosmos 2369 Rocket 2.9 20:42:34 10° SSE 20:47:29 31° ESE 20:52:25 10° NE
Cosmos 2082 Rocket 2.2 20:42:08 10° NNW 20:47:51 83° ENE 20:52:39 15° SSE
NOSS 2-2 (C) 4.4 20:45:00 10° SW 20:48:26 43° WNW 20:51:56 10° NNE
BREEZE-M DEB 3.2 20:46:34 10° WSW 20:48:37 38° NW 20:51:06 10° NE
Cosmos 1674 Rocket 3.6 20:45:04 10° S 20:49:21 61° E 20:53:42 10° NNE
Cosmos 1378 Rocket 3.9 20:45:57 13° SSE 20:49:40 44° E 20:53:50 10° NNE
ATLAS 3B CENTAUR R/B 4.3 20:30:04 10° WSW 20:51:15 70° S 21:00:02 12° E
STARLINK-1082 3.7 20:48:09 10° NW 20:52:16 73° SW 20:54:51 22° SSE
Abrixas rocket 3.7 20:50:18 10° NNW 20:52:48 24° NNE 20:54:17 17° ENE
ATLAS 2AS CENTAUR R/B 3.5 20:46:13 10° S 20:53:08 36° ESE 21:00:14 10° NE
STARLINK-1100 3.8 20:53:07 10° NW 20:57:13 64° SW 20:59:37 23° SSE
STARLINK-1083 4.0 20:58:07 10° NW 21:02:11 57° SW 21:04:23 25° SSE
SL-4 R/B 4.1 21:05:02 10° W 21:05:20 10° WSW 21:05:39 10° WSW
STARLINK-1125 4.1 21:03:07 10° NW 21:07:08 50° SW 21:09:10 26° SSE
Meteor 1-23 Rocket 4.2 21:04:54 10° S 21:10:35 84° E 21:16:15 10° N
STARLINK-1109 4.3 21:08:07 10° WNW 21:12:05 45° SW 21:13:56 26° S
Lacrosse 5 2.9 21:08:31 10° NW 21:13:09 37° WSW 21:16:19 18° S
Cosmos 1066 Rocket 4.0 21:08:30 10° S 21:13:54 87° E 21:19:15 10° N
Cosmos 1975 Rocket 4.1 21:14:15 26° E 21:14:37 27° E 21:18:19 10° NNE
ISS -1.9 21:15:38 10° WNW 21:18:18 22° SW 21:19:16 19° SSW
Cosmos 1378 3.1 21:19:13 43° SSE 21:20:11 60° E 21:23:50 10° NNE
COSMOS 2455 3.9 21:21:21 25° ESE 21:21:21 25° ESE 21:25:58 10° NE
STARLINK-1099 4.5 21:20:28 10° NNW 21:24:23 40° NE 21:25:40 31° E
H-2A ROCKET BODY 3.5 21:24:13 10° SW 21:29:01 45° SSE 21:48:46 10° E
Cosmos 1805 3.9 21:25:21 10° NNE 21:29:01 37° E 21:29:06 37° E
STARLINK-1104 4.3 21:25:25 10° NNW 21:29:23 44° NE 21:30:28 35° E
H-2A R/B 4.2 21:27:11 10° SW 21:29:40 15° S 21:29:40 15° S
VEP-3 3.5 21:26:55 10° SW 21:32:00 27° SSE 21:32:00 27° SSE
STARLINK-1144 4.1 21:30:21 10° NNW 21:34:22 49° NE 21:35:14 41° E
Milstar 3 Cent rocket 3.7 21:28:38 10° SW 21:35:49 53° SSE 21:50:58 10° E
Spot 2 Rocket 3.5 21:34:57 41° SE 21:36:35 65° ENE 21:41:34 10° N
Cosmos 1842 3.9 21:39:48 39° ENE 21:39:48 39° ENE 21:42:55 10° NNE
STARLINK-1103 3.9 21:35:16 10° NW 21:39:20 55° NE 21:40:00 48° E
SAR-Lupe-2 3.6 21:39:11 10° N 21:42:46 76° WNW 21:43:20 59° SW
Cosmos 1733 4.2 21:40:15 10° NNE 21:43:09 33° ENE 21:43:09 33° ENE
STARLINK-1101 3.7 21:40:13 10° NW 21:44:19 61° NE 21:44:47 56° ENE
Cosmos 2263 4.0 21:43:19 26° S 21:46:32 77° ESE 21:52:09 10° NNE
Orbus 7S 4.4 21:43:15 10° WSW 21:46:37 42° S 21:46:49 42° SSE
Okean 1 Rocket 3.3 21:44:24 10° NNW 21:48:48 66° W 21:49:58 45° SSW
STARLINK-1102 3.6 21:45:12 10° NW 21:49:20 69° NE 21:49:36 66° ENE
SPOT 5 3.8 21:48:42 35° E 21:49:29 37° ENE 21:54:22 10° N
Cosmos 1455 Rocket 4.2 21:46:26 10° NNE 21:49:41 28° ENE 21:49:41 28° ENE
Cosmos 2026 Rocket 4.1 21:48:45 41° SSE 21:50:45 60° E 21:56:59 10° NNE
CENTAUR R/B 4.0 21:46:07 10° NNW 21:53:50 41° NE 21:57:55 27° E
STARLINK-1111 3.5 21:50:11 10° NW 21:54:19 77° NE 21:54:24 77° ENE
CARTOSAT-1 4.2 21:54:32 40° ENE 21:54:32 40° ENE 21:58:23 10° N
Terra 2.9 21:58:22 29° ENE 21:58:22 29° ENE 22:02:24 10° N
GPS 2-04 Rocket1 4.2 21:55:43 10° W 21:57:29 24° WSW 21:57:29 24° WSW
STARLINK-1073 3.5 21:55:08 10° NW 21:59:09 83° N 21:59:09 83° N
IGS 5A 3.3 21:59:17 77° SW 21:59:29 80° WSW 22:03:39 10° NNW
Cosmos 1943 Rocket 3.5 21:54:25 10° SW 21:59:32 38° WNW 22:04:42 10° N
BREEZE-M DEB (TANK) 3.7 21:44:15 10° SW 22:00:20 68° SE 22:04:50 10° ENE
SPOT 1/Viking Rocket 3.4 22:01:42 61° SSE 22:02:37 84° ENE 22:07:46 10° N
Resurs 01 Rocket 3.5 22:02:02 18° SW 22:04:06 25° W 22:07:45 10° NW
STARLINK-1121 3.7 22:00:05 10° NW 22:03:55 75° WNW 22:03:55 75° WNW
ATLAS CENTAUR R/B 1.6 22:04:18 53° SW 22:05:16 74° WNW 22:09:32 10° NNE
Okean 2 3.9 22:06:01 51° WSW 22:06:32 56° W 22:10:38 10° N
STARLINK-1106 3.9 22:05:06 10° NW 22:08:43 65° WNW 22:08:43 65° WNW
SL-27 R/B 3.8 22:07:49 10° N 22:10:06 36° N 22:10:06 36° N
NOSS 3-2 (C) 4.4 22:06:06 10° NNW 22:13:49 58° ENE 22:16:47 40° ESE
STARLINK-1112 4.1 22:10:05 10° NW 22:13:30 55° W 22:13:30 55° W
NOSS 3-4 (A) 3.7 22:10:16 10° SW 22:16:05 64° WNW 22:22:10 10° NNE
NOSS 3-4 (C) 3.7 22:10:21 10° SW 22:16:11 65° WNW 22:22:17 10° NNE
Cosmos 1486 Rocket 4.1 22:11:55 10° N 22:17:07 58° ENE 22:17:11 58° ENE
STARLINK-1128 4.4 22:15:04 10° NW 22:18:16 47° W 22:18:16 47° W
Meteor 1-21 4.1 22:19:01 64° S 22:19:55 88° W 22:25:33 10° N
Cosmos 1656 Rocket 3.7 22:18:59 47° SW 22:20:40 77° WNW 22:26:17 10° NNE
Cosmos 1242 Rocket 3.9 22:22:42 39° NNW 22:22:42 39° NNW 22:25:11 10° N
Cosmos 1992 Rocket 3.9 22:21:07 69° SW 22:21:43 81° WNW 22:26:56 10° NNE
Cosmos 1655 Rocket 4.3 22:25:20 46° E 22:25:20 46° E 22:31:09 10° NNE
Cosmos 1544 Rocket 4.4 22:23:22 10° N 22:26:32 43° NNE 22:26:32 43° NNE
Cosmos 2369 Rocket 3.9 22:26:32 10° WSW 22:31:25 29° WNW 22:36:18 10° N
ERS-1 Rocket 3.3 22:39:14 58° W 22:39:14 58° W 22:44:09 10° NNW
ATLAS 2AS CENTAUR R/B 3.9 22:36:24 10° SW 22:43:56 47° NW 22:51:36 10° NNE
NOSS 3-2 (A) 4.4 22:44:33 10° NW 22:52:20 58° WSW 22:54:06 50° SSW
Cosmos 1025 Rocket 4.3 22:54:39 39° NNW 22:54:39 39° NNW 22:57:30 10° N
Cosmos 1867 3.9 22:50:53 10° NNW 22:55:40 58° NNE 22:55:40 58° NNE
Cosmos 968 Rocket 3.9 22:53:36 10° NNW 22:57:49 57° NW 22:57:49 57° NW
USA 238 DEB 4.4 22:59:36 10° NW 23:06:29 44° WSW 23:07:10 43° SW
USA 238 4.4 22:59:42 10° NW 23:06:36 45° WSW 23:07:16 44° SW
COSMOS 2455 3.8 23:04:22 29° WSW 23:06:49 42° WNW 23:12:31 10° NNE
Cosmos 1417 Rocket 4.5 23:03:16 10° N 23:09:35 77° W 23:09:35 77° W
Meteor 2-19 Rocket 4.5 23:10:11 75° NNE 23:10:11 75° NNE 23:15:47 10° N
ATLAS 3B CENTAUR R/B 3.5 23:02:49 10° W 23:14:10 48° SW 23:14:10 48° SW
Exosat Rocket 4.2 23:12:55 10° NNW 23:20:42 65° ENE 23:20:42 65° ENE
Thor Agena Rocket 4.2 23:17:19 10° N 23:21:25 54° N 23:21:25 54° N
Terra 3.9 23:37:15 20° WNW 23:37:15 20° WNW 23:39:42 10° NW
Cosmos 2315 Rocket 4.3 23:38:18 10° N 23:43:30 62° NNE 23:43:30 62° NNE
CENTAUR R/B 3.6 23:36:43 10° NW 23:44:47 49° WSW 23:45:06 49° WSW
Cosmos 2297 Rocket 4.0 23:43:52 10° N 23:48:02 21° ENE 23:48:02 21° ENE
ATLAS 3B R/B 2.8 23:45:04 10° NNW 23:51:18 74° NW 23:51:18 74° NW
SeaSat 1 3.7 23:47:31 10° NNE 23:50:50 39° N 23:50:50 39° N
